FW6002 Weather Reports


Display with metric or nautical units.
time (UTC)temp
F
wind
direction
speed
MPH
gust
MPH
rain 1hr
in
rain 24hr
in
rain mn
in
humidity
%
barometer
mb
20260904040110 80 80 1.0 7.0 0.00 0.00 0.00 80 1012.4
20260904035554 80 187 1.0 6.0 0.00 0.00 0.00 80 1012.5
20260904035054 81 141 1.0 6.0 0.00 0.00 0.00 79 1012.6
20260904034605 81 227 1.0 4.0 0.00 0.00 0.00 79 1012.5
20260904034054 81 145 1.0 4.0 0.00 0.00 0.00 78 1012.7
20260904033556 81 82 1.0 6.0 0.00 0.00 0.00 78 1012.7
20260904033108 81 65 1.0 6.0 0.00 0.00 0.00 78 1012.6
20260904032554 81 176 1.0 6.0 0.00 0.00 0.00 77 1012.6
20260904032055 81 183 1.0 6.0 0.00 0.00 0.00 77 1012.5
20260904031604 81 58 1.0 5.0 0.00 0.00 0.00 76 1012.4
20260904031054 81 185 2.0 5.0 0.00 0.00 0.00 76 1012.3
20260904030554 82 0 2.0 5.0 0.00 0.00 0.00 76 1012.4
20260904030106 82 0 2.0 6.0 0.00 0.00 0.00 75 1012.3
20260904025554 82 75 2.0 6.0 0.00 0.00 0.00 75 1012.2
20260904025054 82 211 1.0 5.0 0.00 0.00 0.00 74 1012.2
20260904024605 82 211 2.0 5.0 0.00 0.00 0.00 74 1012.0
20260904024056 82 207 1.0 4.0 0.00 0.00 0.00 73 1011.9
20260904023553 83 178 2.0 6.0 0.00 0.00 0.00 73 1011.9
20260904023105 83 153 1.0 6.0 0.00 0.00 0.00 73 1011.9
20260904022556 83 131 1.0 7.0 0.00 0.00 0.00 72 1011.8
20260904022054 83 153 1.0 7.0 0.00 0.00 0.00 72 1011.7
20260904021607 83 104 2.0 7.0 0.00 0.00 0.00 71 1011.6
20260904021054 83 158 1.0 5.0 0.00 0.00 0.00 71 1011.5
20260904020554 83 79 2.0 6.0 0.00 0.00 0.00 70 1011.5
20260904020106 83 118 1.0 6.0 0.00 0.00 0.00 70 1011.3
20260904015555 84 106 2.0 7.0 0.00 0.00 0.00 69 1011.3
20260904015056 84 78 2.0 7.0 0.00 0.00 0.00 69 1011.3
20260904014645 84 126 2.0 7.0 0.00 0.00 0.00 69 1011.2
20260904014056 84 76 1.0 7.0 0.00 0.00 0.00 68 1011.3
20260904013559 84 109 1.0 6.0 0.00 0.00 0.00 68 1011.2
20260904013105 85 0 1.0 6.0 0.00 0.00 0.00 68 1011.2
20260904012556 85 137 2.0 7.0 0.00 0.00 0.00 67 1011.2
20260904012055 85 196 2.0 8.0 0.00 0.00 0.00 67 1011.1
20260904011608 85 119 2.0 8.0 0.00 0.00 0.00 66 1010.9
20260904011059 86 68 2.0 8.0 0.00 0.00 0.00 66 1010.9
20260904010555 86 67 2.0 6.0 0.00 0.00 0.00 66 1010.8
20260904010107 86 88 2.0 8.0 0.00 0.00 0.00 65 1010.8
20260904005556 87 14 2.0 8.0 0.00 0.00 0.00 65 1010.7
20260904005055 87 29 2.0 8.0 0.00 0.00 0.00 64 1010.7
20260904004605 87 205 2.0 8.0 0.00 0.00 0.00 64 1010.6
20260904004056 87 54 3.0 9.0 0.00 0.00 0.00 64 1010.5
20260904003555 88 53 2.0 9.0 0.00 0.00 0.00 65 1010.4
20260904003113 88 70 3.0 9.0 0.00 0.00 0.00 65 1010.6
20260904002556 88 62 2.0 9.0 0.00 0.00 0.00 65 1010.5
20260904002058 88 96 2.0 8.0 0.00 0.00 0.00 65 1010.6
20260904001610 89 188 2.0 7.0 0.00 0.00 0.00 65 1010.4
20260904001055 89 131 2.0 7.0 0.00 0.00 0.00 65 1010.5
20260904000557 89 157 2.0 8.0 0.00 0.00 0.00 65 1010.4
20260904000141 90 52 2.0 8.0 0.00 0.00 0.00 65 1010.4
20260903235555 90 134 3.0 9.0 0.00 0.00 0.00 65 1010.5
20260903235055 90 59 1.0 9.0 0.00 0.00 0.00 65 1010.6
20260903234604 91 121 3.0 11.0 0.00 0.00 0.00 64 1010.4
20260903234056 91 24 2.0 11.0 0.00 0.00 0.00 64 1010.2
20260903233559 91 212 2.0 9.0 0.00 0.00 0.00 64 1010.3
20260903233103 91 180 2.0 10.0 0.00 0.00 0.00 65 1010.1
20260903232556 91 171 3.0 10.0 0.00 0.00 0.00 64 1010.1
20260903232100 91 303 2.0 7.0 0.00 0.00 0.00 64 1010.1
20260903231623 91 151 2.0 7.0 0.00 0.00 0.00 64 1010.0
20260903231056 91 74 2.0 8.0 0.00 0.00 0.00 64 1010.0
20260903230555 91 116 3.0 9.0 0.00 0.00 0.00 64 1010.0
20260903230108 91 171 3.0 9.0 0.00 0.00 0.00 64 1010.0
20260903225558 92 80 1.0 7.0 0.00 0.00 0.00 64 1009.9
20260903225055 92 155 2.0 7.0 0.00 0.00 0.00 63 1010.0
20260903224602 92 175 2.0 10.0 0.00 0.00 0.00 64 1009.9
20260903224058 92 111 3.0 10.0 0.00 0.00 0.00 63 1010.0
20260903223554 92 134 1.0 7.0 0.00 0.00 0.00 64 1010.1
20260903223117 92 53 2.0 7.0 0.00 0.00 0.00 64 1010.1
20260903222557 92 60 1.0 6.0 0.00 0.00 0.00 63 1010.0
20260903222055 92 55 2.0 9.0 0.00 0.00 0.00 63 1010.0
20260903221606 93 128 2.0 9.0 0.00 0.00 0.00 63 1010.1
20260903221054 93 159 1.0 7.0 0.00 0.00 0.00 63 1010.1
20260903220555 93 49 3.0 7.0 0.00 0.00 0.00 62 1010.0
20260903220115 94 38 2.0 7.0 0.00 0.00 0.00 61 1010.1
20260903215556 94 225 3.0 12.0 0.00 0.00 0.00 61 1010.0
20260903215054 94 113 3.0 12.0 0.00 0.00 0.00 61 1009.9
20260903214606 94 200 1.0 8.0 0.00 0.00 0.00 61 1010.0
20260903214054 94 69 2.0 9.0 0.00 0.00 0.00 61 1010.0
20260903213554 94 155 2.0 9.0 0.00 0.00 0.00 60 1009.9
20260903213105 95 159 2.0 6.0 0.00 0.00 0.00 60 1010.0
20260903212556 95 239 2.0 7.0 0.00 0.00 0.00 60 1010.1
20260903212055 95 181 2.0 7.0 0.00 0.00 0.00 60 1010.1
20260903211602 95 212 2.0 7.0 0.00 0.00 0.00 60 1009.9
20260903211054 96 44 2.0 7.0 0.00 0.00 0.00 58 1010.0
20260903210554 96 78 2.0 6.0 0.00 0.00 0.00 59 1010.1
20260903210105 95 223 1.0 9.0 0.00 0.00 0.00 61 1010.1
20260903205555 95 143 2.0 9.0 0.00 0.00 0.00 61 1010.2
20260903205054 94 89 2.0 8.0 0.00 0.00 0.00 61 1010.2
20260903204608 95 346 3.0 8.0 0.00 0.00 0.00 61 1010.3
20260903204054 95 59 3.0 10.0 0.00 0.00 0.00 61 1010.5
20260903203600 94 67 3.0 10.0 0.00 0.00 0.00 61 1010.2
20260903203106 95 203 1.0 8.0 0.00 0.00 0.00 61 1010.5
20260903202557 95 49 2.0 8.0 0.00 0.00 0.00 62 1010.6
20260903202054 95 47 2.0 9.0 0.00 0.00 0.00 62 1010.7
20260903201607 94 277 3.0 9.0 0.00 0.00 0.00 62 1010.8
20260903201054 94 71 3.0 13.0 0.00 0.00 0.00 62 1010.9
20260903200555 94 99 3.0 13.0 0.00 0.00 0.00 61 1010.7
20260903200104 94 98 3.0 11.0 0.00 0.00 0.00 62 1011.0
20260903195557 94 352 3.0 9.0 0.00 0.00 0.00 62 1010.9
20260903195054 94 46 3.0 10.0 0.00 0.00 0.00 63 1011.1
20260903194602 94 55 3.0 10.0 0.00 0.00 0.00 63 1011.1
20260903194055 93 106 4.0 10.0 0.00 0.00 0.00 64 1011.2
20260903193554 93 143 3.0 8.0 0.00 0.00 0.00 64 1011.2
20260903193059 93 203 3.0 8.0 0.00 0.00 0.00 64 1011.3
20260903192554 92 54 3.0 9.0 0.00 0.00 0.00 65 1011.3
20260903192054 92 36 3.0 9.0 0.00 0.00 0.00 66 1011.5
20260903191606 91 146 2.0 8.0 0.00 0.00 0.00 67 1011.4
20260903191055 90 91 3.0 8.0 0.00 0.00 0.00 69 1011.5
20260903190555 90 11 3.0 8.0 0.00 0.00 0.00 68 1011.7
20260903190107 90 115 2.0 6.0 0.00 0.00 0.00 68 1011.8
20260903185554 90 182 2.0 6.0 0.00 0.00 0.00 69 1011.8
20260903185054 90 68 1.0 6.0 0.00 0.00 0.00 69 1012.0
20260903184604 89 164 1.0 6.0 0.00 0.00 0.00 69 1012.1
20260903184058 89 147 2.0 6.0 0.00 0.00 0.00 70 1012.2
20260903183555 89 186 2.0 6.0 0.00 0.00 0.00 70 1012.2
20260903183106 89 149 2.0 7.0 0.00 0.00 0.00 70 1012.3
20260903182554 89 150 2.0 8.0 0.00 0.00 0.00 70 1012.4
20260903182054 89 38 2.0 8.0 0.00 0.00 0.00 69 1012.3
20260903181604 89 49 2.0 9.0 0.00 0.00 0.00 68 1012.4
20260903181057 90 137 2.0 9.0 0.00 0.00 0.00 67 1012.5
20260903180555 90 211 2.0 8.0 0.00 0.00 0.00 67 1012.5
20260903175554 90 147 3.0 8.0 0.00 0.00 0.00 67 1012.7
20260903175054 91 360 1.0 9.0 0.00 0.00 0.00 66 1012.7
20260903174601 91 134 2.0 9.0 0.00 0.00 0.00 65 1012.7
20260903174054 91 98 2.0 9.0 0.00 0.00 0.00 65 1012.7
20260903173554 91 109 2.0 6.0 0.00 0.00 0.00 65 1012.9
20260903173109 91 129 2.0 6.0 0.00 0.00 0.00 64 1012.9
20260903172554 90 202 2.0 6.0 0.00 0.00 0.00 65 1013.0
20260903172057 90 171 1.0 6.0 0.00 0.00 0.00 65 1013.0
20260903171611 90 259 2.0 6.0 0.00 0.00 0.00 65 1013.0
20260903171056 90 0 1.0 6.0 0.00 0.00 0.00 65 1013.1
20260903170557 90 130 1.0 5.0 0.00 0.00 0.00 66 1013.0
20260903170110 89 71 2.0 5.0 0.00 0.00 0.00 65 1013.0
20260903165554 89 100 2.0 5.0 0.00 0.00 0.00 66 1013.0
20260903165054 90 63 1.0 5.0 0.00 0.00 0.00 66 1013.0
20260903164608 89 34 1.0 6.0 0.00 0.00 0.00 67 1013.2
20260903164055 88 82 2.0 6.0 0.00 0.00 0.00 69 1013.3
20260903163556 89 51 1.0 4.0 0.00 0.00 0.00 68 1013.2
20260903163114 88 275 1.0 4.0 0.00 0.00 0.00 69 1013.2
20260903162558 89 68 1.0 5.0 0.00 0.00 0.00 68 1013.4
20260903162057 88 168 1.0 5.0 0.00 0.00 0.00 69 1013.4
20260903161612 87 230 1.0 5.0 0.00 0.00 0.00 70 1013.5
20260903161056 87 202 1.0 7.0 0.00 0.00 0.00 69 1013.4
20260903160557 88 184 1.0 7.0 0.00 0.00 0.00 70 1013.3
20260903160108 87 24 1.0 4.0 0.00 0.00 0.00 70 1013.1
20260903155556 87 206 1.0 4.0 0.00 0.00 0.00 71 1013.2
20260903155058 87 0 1.0 6.0 0.00 0.00 0.00 71 1013.3
20260903154608 86 58 1.0 7.0 0.00 0.00 0.00 71 1013.3
20260903154057 86 104 2.0 7.0 0.00 0.00 0.00 72 1013.2
20260903153557 85 70 1.0 5.0 0.00 0.00 0.00 73 1013.2
20260903153104 85 241 2.0 5.0 0.00 0.00 0.00 73 1013.3
20260903152555 85 74 2.0 5.0 0.00 0.00 0.00 73 1013.1
20260903152051 85 53 0.0 4.0 0.00 0.00 0.00 74 1013.0
20260903151604 85 107 1.0 4.0 0.00 0.00 0.00 74 1013.0
20260903151055 85 0 1.0 4.0 0.00 0.00 0.00 74 1013.0
20260903150555 85 36 1.0 5.0 0.00 0.00 0.00 74 1013.2
20260903150118 85 49 1.0 7.0 0.00 0.00 0.00 73 1013.0
20260903145552 85 0 2.0 7.0 0.00 0.00 0.00 73 1013.1
20260903145052 85 232 1.0 6.0 0.00 0.00 0.00 73 1013.0
20260903144603 85 69 2.0 6.0 0.00 0.00 0.00 73 1013.1
20260903144053 85 128 1.0 5.0 0.00 0.00 0.00 75 1012.9
20260903143552 84 63 1.0 4.0 0.00 0.00 0.00 75 1012.9
20260903143104 84 159 1.0 3.0 0.00 0.00 0.00 76 1012.9
20260903142552 83 60 1.0 4.0 0.00 0.00 0.00 77 1013.0
20260903142059 83 69 2.0 4.0 0.00 0.00 0.00 76 1012.9
20260903141605 84 49 1.0 4.0 0.00 0.00 0.00 77 1012.9
20260903141058 83 243 1.0 4.0 0.00 0.00 0.00 78 1013.1
20260903140552 82 76 0.0 5.0 0.00 0.00 0.00 80 1013.0
20260903140106 81 0 1.0 5.0 0.00 0.00 0.00 81 1013.0
20260903135555 80 50 1.0 7.0 0.00 0.00 0.00 81 1013.1
20260903135052 80 130 1.0 7.0 0.00 0.00 0.00 81 1013.0
20260903134559 80 18 2.0 6.0 0.00 0.00 0.00 80 1013.1
20260903134053 80 228 1.0 5.0 0.00 0.00 0.00 82 1013.1
20260903133552 79 57 1.0 3.0 0.00 0.00 0.00 83 1013.0
20260903133102 79 57 1.0 3.0 0.00 0.00 0.00 84 1012.9
20260903132552 78 53 1.0 3.0 0.00 0.00 0.00 84 1013.0
20260903132055 78 173 1.0 3.0 0.00 0.00 0.00 84 1013.0
20260903131605 78 36 1.0 4.0 0.00 0.00 0.00 85 1013.1
20260903131054 77 0 0.0 4.0 0.00 0.00 0.00 86 1013.0
20260903130554 77 248 0.0 2.0 0.00 0.00 0.00 86 1013.0
20260903130111 76 0 0.0 2.0 0.00 0.00 0.00 87 1013.0
20260903125555 76 213 0.0 2.0 0.00 0.00 0.00 87 1012.9
20260903125056 76 0 0.0 2.0 0.00 0.00 0.00 87 1012.9
20260903124605 76 0 0.0 3.0 0.00 0.00 0.00 87 1013.0
20260903124054 75 0 0.0 3.0 0.00 0.00 0.00 88 1013.0
20260903123554 75 0 0.0 1.0 0.00 0.00 0.00 88 1013.0
20260903123100 75 0 0.0 1.0 0.00 0.00 0.00 87 1013.0
20260903122629 75 0 0.0 1.0 0.00 0.00 0.00 87 1012.8
20260903122055 75 185 0.0 1.0 0.00 0.00 0.00 87 1012.8
20260903121601 75 0 0.0 1.0 0.00 0.00 0.00 87 1012.7
20260903121055 75 0 0.0 1.0 0.00 0.00 0.00 87 1012.7
20260903120555 75 172 0.0 2.0 0.00 0.00 0.00 87 1012.6
20260903115555 75 0 0.0 2.0 0.00 0.00 0.00 87 1012.7
20260903115054 75 169 0.0 2.0 0.00 0.00 0.00 87 1012.7
20260903114618 75 173 0.0 1.0 0.00 0.00 0.00 87 1012.5
20260903114055 75 0 0.0 2.0 0.00 0.00 0.00 87 1012.3
20260903113555 75 0 0.0 2.0 0.00 0.00 0.00 86 1012.3
20260903113106 75 187 0.0 2.0 0.00 0.00 0.00 86 1012.3
20260903112555 75 0 0.0 1.0 0.00 0.00 0.00 86 1012.2
20260903112055 75 0 0.0 2.0 0.00 0.00 0.00 86 1012.3
20260903111617 75 0 0.0 2.0 0.00 0.00 0.00 86 1012.3
20260903111058 75 0 0.0 1.0 0.00 0.00 0.00 86 1012.3
20260903110555 75 0 0.0 1.0 0.00 0.00 0.00 86 1012.3
20260903105557 75 162 0.0 2.0 0.00 0.00 0.00 85 1012.3
20260903105057 75 162 0.0 2.0 0.00 0.00 0.00 85 1012.2
20260903104620 75 0 0.0 2.0 0.00 0.00 0.00 85 1012.1
20260903104055 75 0 0.0 2.0 0.00 0.00 0.00 85 1012.2
20260903103553 75 0 0.0 2.0 0.00 0.00 0.00 85 1012.2
20260903103122 75 0 0.0 1.0 0.00 0.00 0.00 85 1012.2
20260903102555 75 0 0.0 1.0 0.00 0.00 0.00 85 1012.2
20260903102055 75 0 0.0 2.0 0.00 0.00 0.00 85 1012.3
20260903101607 75 0 0.0 2.0 0.00 0.00 0.00 85 1012.3
20260903101055 75 0 0.0 2.0 0.00 0.00 0.00 85 1012.1
20260903100600 75 0 0.0 3.0 0.00 0.00 0.00 85 1012.2
20260903095554 75 172 0.0 2.0 0.00 0.00 0.00 85 1012.1
20260903095056 75 0 0.0 1.0 0.00 0.00 0.00 85 1012.2
20260903094608 75 0 0.0 1.0 0.00 0.00 0.00 85 1011.9
20260903094056 75 0 0.0 0.0 0.00 0.00 0.00 85 1012.0
20260903093555 74 0 0.0 0.0 0.00 0.00 0.00 85 1011.9
20260903093129 75 0 0.0 0.0 0.00 0.00 0.00 84 1011.9
20260903092555 75 0 0.0 0.0 0.00 0.00 0.00 84 1011.9
20260903092055 75 0 0.0 0.0 0.00 0.00 0.00 84 1012.0
20260903091604 75 0 0.0 0.0 0.00 0.00 0.00 84 1012.1
20260903091054 75 0 0.0 0.0 0.00 0.00 0.00 84 1012.0
20260903090557 75 0 0.0 0.0 0.00 0.00 0.00 83 1012.2
20260903090108 75 0 0.0 0.0 0.00 0.00 0.00 83 1012.1
20260903085555 75 0 0.0 0.0 0.00 0.00 0.00 83 1012.2
20260903085056 75 0 0.0 0.0 0.00 0.00 0.00 83 1012.2
20260903084603 75 0 0.0 0.0 0.00 0.00 0.00 82 1012.2
20260903084056 76 0 0.0 0.0 0.00 0.00 0.00 82 1012.3
20260903083557 76 0 0.0 0.0 0.00 0.00 0.00 82 1012.2
20260903083109 76 0 0.0 0.0 0.00 0.00 0.00 82 1012.4
20260903082555 76 0 0.0 0.0 0.00 0.00 0.00 81 1012.3
20260903082055 76 0 0.0 0.0 0.00 0.00 0.00 82 1012.4
20260903081602 76 0 0.0 0.0 0.00 0.00 0.00 81 1012.3
20260903081056 76 0 0.0 0.0 0.00 0.00 0.00 81 1012.2
20260903080559 76 0 0.0 0.0 0.00 0.00 0.00 81 1012.5
20260903080104 76 0 0.0 0.0 0.00 0.00 0.00 81 1012.5
20260903075555 77 0 0.0 0.0 0.00 0.00 0.00 81 1012.4
20260903075059 77 0 0.0 0.0 0.00 0.00 0.00 80 1012.7
20260903074611 77 0 0.0 0.0 0.00 0.00 0.00 80 1012.8
20260903074056 77 0 0.0 0.0 0.00 0.00 0.00 79 1012.8
20260903073559 78 0 0.0 0.0 0.00 0.00 0.00 79 1012.6
20260903073107 78 0 0.0 0.0 0.00 0.00 0.00 78 1012.7
20260903072556 78 0 0.0 1.0 0.00 0.00 0.00 78 1012.4
20260903072055 79 0 0.0 2.0 0.00 0.00 0.00 77 1012.7
20260903071632 79 0 0.0 2.0 0.00 0.00 0.00 77 1012.9
20260903071054 79 0 0.0 1.0 0.00 0.00 0.00 77 1012.8
20260903070554 79 0 0.0 2.0 0.00 0.00 0.00 77 1012.8
20260903070108 79 0 0.0 2.0 0.00 0.00 0.00 77 1012.9
20260903065556 79 0 0.0 2.0 0.00 0.00 0.00 77 1012.8
20260903065054 80 0 0.0 2.0 0.00 0.00 0.00 76 1013.0
20260903064608 80 0 0.0 2.0 0.00 0.00 0.00 76 1013.0
20260903064054 80 223 0.0 3.0 0.00 0.00 0.00 76 1013.0
20260903063555 80 152 0.0 3.0 0.00 0.00 0.00 76 1012.9
20260903063107 80 135 0.0 2.0 0.00 0.00 0.00 75 1013.0
20260903062557 80 177 0.0 2.0 0.00 0.00 0.00 75 1013.0
20260903062056 80 166 0.0 3.0 0.00 0.00 0.00 75 1013.0
20260903061611 80 186 0.0 3.0 0.00 0.00 0.00 74 1012.8
20260903061054 81 197 0.0 3.0 0.00 0.00 0.00 74 1013.0
20260903060555 81 0 0.0 4.0 0.00 0.00 0.00 74 1013.0
20260903060109 81 114 0.0 4.0 0.00 0.00 0.00 74 1013.2
20260903055555 81 0 0.0 4.0 0.00 0.00 0.00 73 1013.2
20260903055054 82 91 1.0 4.0 0.00 0.00 0.00 73 1013.3
20260903054607 82 202 1.0 3.0 0.00 0.00 0.00 72 1013.3
20260903054055 82 208 1.0 3.0 0.00 0.00 0.00 72 1013.2
20260903053558 82 0 0.0 4.0 0.00 0.00 0.00 71 1013.2
20260903053103 82 59 1.0 4.0 0.00 0.00 0.00 71 1013.3
20260903052555 82 92 1.0 5.0 0.00 0.00 0.00 71 1013.2
20260903052055 82 131 1.0 5.0 0.00 0.00 0.00 71 1013.2
20260903051601 83 80 1.0 4.0 0.00 0.00 0.00 71 1013.0
20260903051054 83 0 1.0 3.0 0.00 0.00 0.00 71 1012.9
20260903050554 83 86 1.0 3.0 0.00 0.00 0.00 71 1013.1
20260903050114 83 126 1.0 3.0 0.00 0.00 0.00 70 1013.0
20260903045555 83 88 1.0 5.0 0.00 0.00 0.00 70 1013.2
20260903045054 83 96 1.0 5.0 0.00 0.00 0.00 70 1013.0
20260903044606 83 60 1.0 5.0 0.00 0.00 0.00 69 1012.9
20260903044055 83 87 0.0 4.0 0.00 0.00 0.00 69 1013.1
20260903043555 83 0 0.0 4.0 0.00 0.00 0.00 69 1013.0
20260903043103 84 163 1.0 4.0 0.00 0.00 0.00 69 1013.1
20260903042555 84 0 0.0 4.0 0.00 0.00 0.00 68 1013.1
20260903042058 84 0 1.0 4.0 0.00 0.00 0.00 68 1013.2
20260903041612 84 156 0.0 4.0 0.00 0.00 0.00 68 1013.0
20260903041055 84 163 1.0 3.0 0.00 0.00 0.00 68 1013.0
20260903040554 84 64 0.0 3.0 0.00 0.00 0.00 68 1012.8